[[{"header":{"parameterUnit":"m.s-1","parameterCategory":1,"la1":30.2991,"la2":30.254,"lo1":-89.0895,"lo2":-89.0444,"dy":0.0017,"dx":0.0017,"nx":28,"ny":28,"refTime":"2025-07-24T03:00:00:Z","depth":0,"parameterNumber":2,"parameterNumberName":"U-component_of_WINDS"},"data":[0,0,0,0,0,0,0,0,0,0,0,0,0,0,0,0,0,0,0,0,0,0,0,0,0,0,0,0,0,0,0,0,0,0,0,0,0,0,0,0,0,0,0,0,0,0,0,0,0,0,0,0,0,0,0,0,0,0,-2.747,-2.747,0,-2.7482,-2.7483,-2.7483,-2.7471,-2.747,-2.747,-2.7469,-2.7483,-2.7483,-2.7484,0,0,0,0,0,0,0,0,0,0,0,0,0,-2.7435,-2.7435,-2.747,-2.747,-2.747,-2.7482,-2.7483,-2.7483,-2.7471,-2.747,-2.7469,-2.7469,-2.7482,-2.7483,-2.7484,0,0,0,0,0,0,0,0,0,0,0,0,0,-2.7449,-2.7436,-2.747,-2.7465,-2.7465,-2.7482,-2.7483,-2.7483,-2.7471,-2.747,-2.7469,-2.7469,-2.7482,-2.7483,-2.7484,-2.7507,0,0,-2.7488,-2.7489,0,0,0,0,0,0,0,0,-2.7448,-2.745,-2.7466,-2.7466,-2.7465,-2.7474,-2.7475,-2.7491,-2.7471,-2.7469,-2.7469,-2.7468,-2.748,-2.7482,-2.7486,-2.7507,-2.7508,-2.7488,-2.7489,-2.749,-2.749,0,0,0,0,0,0,0,-2.7447,-2.745,-2.7475,-2.7466,-2.7466,-2.7463,-2.7464,-2.7478,-2.7478,-2.7469,-2.7468,-2.747,-2.748,-2.7485,-2.7486,-2.7508,-2.7488,-2.7489,-2.749,-2.7491,-2.7548,-2.7549,0,0,0,0,0,0,-2.7447,-2.7449,-2.7474,-2.7475,-2.7455,-2.7464,-2.7465,-2.7472,-2.7478,-2.7479,-2.747,-2.7469,-2.7483,-2.7485,-2.7486,-2.7512,-2.749,-2.7491,-2.7491,-2.7547,-2.7548,-2.7549,0,0,0,0,0,0,-2.7446,-2.7449,-2.7474,-2.7462,-2.7465,-2.7465,-2.7473,-2.7473,-2.7477,-2.7479,-2.7479,-2.7475,-2.7482,-2.7485,-2.7502,-2.7512,-2.7491,-2.7492,-2.7546,-2.7547,-2.7549,-2.7564,0,0,0,0,0,0,-2.7445,-2.7449,-2.7457,-2.7462,-2.7465,-2.7489,-2.7474,-2.7474,-2.7479,-2.7478,-2.7484,-2.7484,-2.7482,-2.75,-2.7503,-2.7514,-2.7493,-2.7545,-2.7547,-2.7548,-2.7563,-2.7566,-2.7569,0,0,0,0,0,-2.7444,-2.7461,-2.7458,-2.7461,-2.7476,-2.7489,-2.7491,-2.7489,-2.748,-2.7489,-2.749,-2.7484,-2.7511,-2.7502,-2.7505,-2.7516,-2.7544,-2.7546,-2.7548,-2.7562,-2.7565,-2.7568,0,0,0,0,0,0,-2.7458,-2.7462,-2.7458,-2.7477,-2.7483,-2.7487,-2.7498,-2.7493,-2.7501,-2.7499,-2.7496,-2.7497,-2.7515,-2.7518,-2.7507,-2.7538,-2.7526,-2.7529,-2.7536,-2.7539,-2.7542,-2.7541,-2.7494,0,0,0,0,0,-2.7463,-2.7474,-2.7477,-2.7494,-2.7497,-2.7497,-2.7503,-2.75,-2.7506,-2.7508,-2.7511,-2.7517,-2.7527,-2.7533,-2.7543,-2.7564,-2.7564,-2.7573,-2.7576,-2.7578,-2.758,-2.7591,-2.7595,-2.7555,-2.7555,-2.7555,0,0,-2.7475,-2.7478,-2.7485,-2.7497,-2.7501,-2.7512,-2.7499,-2.7511,-2.7519,-2.751,-2.7526,-2.7528,-2.7535,-2.7553,-2.7562,-2.7556,-2.7592,-2.7581,-2.7582,-2.7583,-2.7593,-2.7597,-2.76,-2.7556,-2.7556,-2.7556,0,0,-2.75,-2.7504,-2.7519,-2.7523,-2.7529,-2.7529,-2.7533,-2.7537,-2.7538,-2.7554,-2.7548,-2.7557,-2.7575,-2.7579,-2.7584,-2.7611,-2.7606,-2.7615,-2.7629,-2.764,-2.7643,-2.7646,-2.7655,-2.7658,-2.7617,-2.7617,-2.7617,0,-2.7513,-2.7529,-2.7527,-2.7539,-2.7544,-2.7537,-2.7551,-2.7556,-2.7565,-2.7568,-2.7562,-2.7583,-2.7587,-2.7606,-2.7613,-2.7617,-2.7621,-2.7613,-2.7643,-2.7645,-2.7648,-2.7656,-2.766,-2.7618,-2.7618,-2.7618,-2.7618,0,-2.7545,-2.7556,-2.7567,-2.7576,-2.7582,-2.7596,-2.7595,-2.7602,-2.7599,-2.76,-2.7616,-2.762,-2.763,-2.7634,-2.7632,-2.7654,-2.765,-2.7643,-2.7631,-2.7653,-2.7661,-2.7664,-2.7619,-2.7619,-2.7619,-2.7618,0,0,-2.758,-2.7586,-2.759,-2.7594,-2.76,-2.7609,-2.7622,-2.7631,-2.7637,-2.7644,-2.7654,-2.7669,-2.7663,-2.7668,-2.7666,-2.7676,-2.7696,-2.7668,-2.7668,-2.7672,-2.7719,-2.7724,-2.7728,-2.7693,-2.7693,-2.7694,-2.7719,0,-2.7605,-2.7627,-2.7625,-2.7646,-2.7656,-2.7649,-2.7661,-2.7666,-2.7667,-2.7675,-2.7677,-2.7687,-2.7678,-2.7681,-2.769,-2.7692,-2.7706,-2.769,-2.7702,-2.7703,-2.77,-2.7732,-2.7737,-2.776,-2.7722,-2.7722,-2.7723,0,-2.7638,-2.7645,-2.7667,-2.7671,-2.7675,-2.7686,-2.7694,-2.7702,-2.7708,-2.7708,-2.7714,-2.771,-2.7723,-2.7712,-2.7729,-2.7719,-2.7724,-2.7725,-2.7726,-2.7726,-2.7713,-2.7732,-2.7767,-2.777,-2.7728,-2.7727,-2.7727,0,-2.766,-2.7675,-2.769,-2.7694,-2.7699,-2.7706,-2.7709,-2.7714,-2.772,-2.7727,-2.7731,-2.774,-2.7744,-2.7751,-2.775,-2.7742,-2.7768,-2.7756,-2.7768,-2.7768,-2.7773,-2.7772,-2.7808,-2.7778,-2.7778,-2.7778,-2.7777,0,-2.7688,-2.7702,-2.77,-2.7709,-2.7724,-2.7722,-2.7737,-2.7738,-2.7743,-2.7752,-2.7747,-2.7756,-2.7754,-2.7763,-2.7762,-2.7777,-2.7779,-2.7779,-2.7779,-2.7779,-2.7779,-2.7782,-2.778,-2.7778,-2.7778,-2.7778,-2.7778,0,-2.7715,-2.7715,-2.773,-2.7734,-2.7736,-2.7746,-2.775,-2.7758,-2.7759,-2.7771,-2.7773,-2.7774,-2.7784,-2.7784,-2.7796,-2.7795,-2.7813,-2.7811,-2.7811,-2.781,-2.7821,-2.782,-2.7859,-2.7864,-2.7831,-2.7831,-2.7832,0,-2.7733,-2.7743,-2.7748,-2.7753,-2.7756,-2.7766,-2.7771,-2.7769,-2.7775,-2.7782,-2.779,-2.78,-2.7807,-2.7824,-2.7825,-2.7834,-2.7832,-2.7845,-2.7833,-2.7833,-2.7831,-2.783,-2.7831,-2.7847,-2.7848,-2.7848,-2.7848,0,-2.7764,-2.7763,-2.7771,-2.7779,-2.7786,-2.7792,-2.7798,-2.7803,-2.7801,-2.7808,-2.7818,-2.7824,-2.7836,-2.7845,-2.7854,-2.7857,-2.7852,-2.7852,-2.7855,-2.7855,-2.7854,-2.7854,-2.7816,-2.7851,-2.7851,-2.785,-2.785,-2.785,-2.7787,-2.7795,-2.7799,-2.7808,-2.7812,-2.7818,-2.7826,-2.7827,-2.7835,-2.7844,-2.7843,-2.7854,-2.7859,-2.787,-2.7873,-2.7882,-2.7877,-2.7882,-2.7883,-2.7884,-2.7885,-2.7853,-2.7884,-2.7884,-2.7883,-2.7883,-2.7883,0,-2.7817,-2.7819,-2.7828,-2.7835,-2.7842,-2.7837,-2.7843,-2.785,-2.7859,-2.7864,-2.7872,-2.7883,-2.7892,-2.7894,-2.7903,-2.7909,-2.7908,-2.7912,-2.7911,-2.7911,-2.7889,-2.7885,-2.7913,-2.7913,-2.7913,-2.7913,-2.7913,-2.7913,-2.7834,-2.7847,-2.7847,-2.7862,-2.7865,-2.7875,-2.7879,-2.7884,-2.7888,-2.79,-2.7907,-2.7909,-2.7913,-2.7922,-2.793,-2.793,-2.7933,-2.7938,-2.7938,-2.7916,-2.7913,-2.791,-2.7906,-2.7939,-2.7939,-2.7959,-2.796,-2.796]},{"header":{"parameterUnit":"m.s-1","parameterCategory":1,"la1":30.2991,"la2":30.254,"lo1":-89.0895,"lo2":-89.0444,"dy":0.0017,"dx":0.0017,"nx":28,"ny":28,"refTime":"2025-07-24T03:00:00:Z","depth":0,"parameterNumber":3,"parameterNumberName":"V-component_of_WINDS"},"data":[0,0,0,0,0,0,0,0,0,0,0,0,0,0,0,0,0,0,0,0,0,0,0,0,0,0,0,0,0,0,0,0,0,0,0,0,0,0,0,0,0,0,0,0,0,0,0,0,0,0,0,0,0,0,0,0,0,0,5.998,5.998,0,5.997,5.997,5.997,5.9901,5.99,5.9898,5.9896,5.9886,5.9888,5.9889,0,0,0,0,0,0,0,0,0,0,0,0,0,5.9939,5.994,5.998,5.998,5.9979,5.997,5.997,5.997,5.9902,5.99,5.9898,5.9896,5.9886,5.9888,5.9889,0,0,0,0,0,0,0,0,0,0,0,0,0,5.9946,5.994,5.998,5.9944,5.9941,5.997,5.997,5.997,5.9902,5.99,5.9897,5.9895,5.9886,5.9887,5.9889,5.9952,0,0,5.9895,5.9896,0,0,0,0,0,0,0,0,5.9945,5.9947,5.995,5.9947,5.9943,5.9934,5.9952,5.9964,5.9903,5.9917,5.9896,5.9893,5.9904,5.9905,5.9908,5.9951,5.9951,5.9895,5.9897,5.9897,5.9898,0,0,0,0,0,0,0,5.9945,5.9947,5.9976,5.995,5.9946,5.9929,5.9927,5.9954,5.9925,5.9915,5.991,5.991,5.9902,5.9907,5.9908,5.9951,5.9895,5.9897,5.9898,5.9899,6.0045,6.0047,0,0,0,0,0,0,5.995,5.9947,5.9976,5.9976,5.9938,5.9932,5.993,5.994,5.9924,5.992,5.9912,5.9907,5.9905,5.9905,5.9907,5.9979,5.9897,5.9899,5.99,6.0042,6.0045,6.0048,0,0,0,0,0,0,5.9949,5.9953,5.9977,5.996,5.9962,5.9935,5.9947,5.9941,5.9945,5.9922,5.9917,5.9922,5.9903,5.9904,5.9941,5.9977,5.99,5.9902,6.0039,6.0043,6.0047,6.0123,0,0,0,0,0,0,5.9948,5.9953,5.9976,5.9961,5.9963,6.0011,5.9949,5.9943,5.9949,5.9942,5.993,5.9926,5.9901,5.9939,5.9943,5.9979,5.9903,6.0035,6.0041,6.0045,6.0117,6.0129,6.014,0,0,0,0,0,5.9947,5.9998,5.9978,5.9982,5.9992,6.0013,6.0014,5.9985,5.9952,5.9975,5.9961,5.9926,5.9973,5.9943,5.9947,5.9984,6.0033,6.0039,6.0045,6.0112,6.0127,6.0139,0,0,0,0,0,0,6.0018,5.9995,5.9973,6.002,6.0019,6.0002,6.003,6.0001,6.0009,6.0002,5.9965,5.9963,6.0006,5.9999,5.9966,6.0044,5.9997,6.0004,6.0047,6.006,6.0071,6.0072,5.9905,0,0,0,0,0,6.0039,6.0058,6.0038,6.0082,6.0083,6.0057,6.0065,6.0043,6.004,6.0039,6.0027,6.0025,6.004,6.005,6.0062,6.0116,6.0113,6.0144,6.0155,6.0164,6.0171,6.0199,6.0212,6.0068,6.0068,6.0068,0,0,6.0083,6.0073,6.0087,6.0096,6.0092,6.0113,6.0057,6.0081,6.0096,6.0042,6.0076,6.0068,6.0064,6.011,6.0129,6.0105,6.021,6.0172,6.018,6.0181,6.0207,6.022,6.0232,6.0072,6.0071,6.0071,0,0,6.0173,6.0168,6.0204,6.0202,6.0198,6.018,6.0189,6.0176,6.0168,6.0202,6.0162,6.018,6.0205,6.0204,6.0207,6.0299,6.0267,6.0304,6.0362,6.039,6.0401,6.0411,6.0443,6.0455,6.031,6.0311,6.0311,0,6.0228,6.0258,6.0226,6.0254,6.0259,6.0212,6.0248,6.0247,6.0247,6.0252,6.0225,6.0257,6.0251,6.0296,6.0318,6.0322,6.0331,6.0304,6.0402,6.0411,6.042,6.045,6.0463,6.0315,6.0314,6.0314,6.0314,0,6.0325,6.0347,6.0377,6.0378,6.0386,6.0418,6.0392,6.0404,6.0382,6.0367,6.0402,6.0394,6.0403,6.0413,6.0391,6.0455,6.044,6.0408,6.036,6.0439,6.0467,6.0478,6.0321,6.032,6.0318,6.0317,0,0,6.0458,6.0443,6.0454,6.0454,6.0447,6.0462,6.0493,6.0502,6.0513,6.0515,6.0539,6.0563,6.0534,6.0537,6.0515,6.0539,6.0612,6.0504,6.0504,6.0524,6.0682,6.0705,6.0719,6.0592,6.0594,6.0595,6.0682,0,6.0544,6.0594,6.0568,6.0621,6.064,6.0597,6.0623,6.0621,6.0609,6.0624,6.061,6.0627,6.0588,6.0589,6.0612,6.0598,6.0643,6.0592,6.0613,6.0614,6.0614,6.0733,6.0758,6.084,6.0693,6.0694,6.0696,0,6.0651,6.0658,6.0714,6.0703,6.071,6.0734,6.074,6.0755,6.0753,6.0742,6.0747,6.0719,6.0747,6.0701,6.074,6.0706,6.0713,6.0708,6.0711,6.071,6.0659,6.0736,6.0865,6.0877,6.0713,6.0711,6.071,0,6.0742,6.0765,6.0801,6.0803,6.0791,6.0809,6.0805,6.08,6.0807,6.0814,6.0818,6.0828,6.0833,6.0842,6.0817,6.0786,6.0859,6.0811,6.0851,6.0852,6.0867,6.0866,6.0999,6.0874,6.0874,6.0874,6.0873,0,6.084,6.0875,6.0842,6.0864,6.0902,6.0872,6.0911,6.0902,6.0899,6.0918,6.0882,6.0901,6.0868,6.0884,6.0866,6.0901,6.0903,6.0896,6.089,6.0898,6.0899,6.0902,6.0895,6.0877,6.0876,6.0876,6.0875,0,6.0947,6.0926,6.0962,6.0949,6.0946,6.0975,6.0964,6.0984,6.0969,6.0995,6.0999,6.0977,6.0994,6.0971,6.0986,6.0973,6.1021,6.1008,6.1022,6.1018,6.1059,6.1055,6.1197,6.1213,6.1079,6.108,6.1081,0,6.101,6.1036,6.1026,6.1037,6.1035,6.1053,6.1061,6.1032,6.1042,6.1042,6.1062,6.1076,6.1086,6.1116,6.1101,6.1112,6.1098,6.1147,6.1099,6.1107,6.1098,6.1096,6.1099,6.1156,6.1158,6.1159,6.116,0,6.1125,6.1113,6.1126,6.1136,6.1146,6.1152,6.1156,6.1167,6.1137,6.115,6.1167,6.1175,6.1191,6.1205,6.1213,6.1208,6.118,6.1176,6.1185,6.1193,6.1201,6.1197,6.1048,6.1172,6.1171,6.117,6.1169,6.1169,6.1211,6.1233,6.1229,6.1245,6.1244,6.1249,6.1267,6.1256,6.127,6.128,6.1263,6.1285,6.1282,6.1289,6.1289,6.1305,6.1284,6.1298,6.1302,6.1306,6.1312,6.1199,6.1307,6.1306,6.1306,6.1306,6.1305,0,6.1323,6.1319,6.1334,6.134,6.1353,6.1325,6.1328,6.134,6.136,6.136,6.1371,6.1391,6.1405,6.1392,6.1404,6.142,6.1407,6.1424,6.1422,6.1422,6.133,6.132,6.1434,6.1434,6.1434,6.1434,6.1434,6.1434,6.1383,6.1418,6.1407,6.1441,6.1437,6.1458,6.1462,6.1466,6.1466,6.149,6.1502,6.1494,6.1488,6.15,6.1512,6.1507,6.1513,6.1535,6.1526,6.1441,6.1428,6.1416,6.1406,6.1537,6.1537,6.1616,6.1616,6.1617]}]]